PEGASUS DEB, 39319

Orbit data source: Space-Track

PEGASUS DEB, 39319 is space debris in LEO originally from a launch on Thu, 19 May 1994 UTC launched from the Air Force Western Test Range (AFWTR). Debris objects in space refer to the collection of defunct objects orbiting the Earth. Examples of debris include non-operational satellites, rocket bodies, and fragments generated from explosions, collisions, or faulty payload assembly.

Loading next visibility...
Identifier
39319, 1994-029AFE
Orbit
LEO
Country
Flag of USUS
Related business
Manufacturer
Unknown
Mission
Spacecraft
Bus & Motor
Unknown
Mass
Unknown
Launch date (UTC)
1994-05-19 (32 years ago)
Launch vehicle
Unknown
Launch site
Air Force Western Test Range (AFWTR)
Object type
Payload
Rocket body
Debris
Shape & HBR
Unknown shape, 0.1 m
Radar Cross Section
Small (<0.1 m²)

Expand to show TLE details & history
Last TLE update: 2 days ago

TLE from 2 days ago
0 PEGASUS DEB
1 39319U 94029AFE 26047.02530948  .00001419  00000-0  19522-3 0  9996
2 39319  81.9455 159.4126 0179626 308.9159  49.6144 14.67116624260568
Epoch: 2026-02-16T00:36Z
TLE epoch observation values (Epoch: 2026-02-16T00:36:26.739Z)
Latitude
-0.00001°
Longitude
4.2756°
Altitude
592.582 km
Speed
7.607 km/s
True Right ascension
10h 37m 39s
True Declination
0° 00' 00"
Sunlit
Object was in full shadow at epoch
Visualization orbit readout
Latitude
Unknown
Longitude
Unknown
Altitude
Unknown
Speed
Unknown
Apparent Right ascension
Unknown
Apparent Declination
Unknown
Sunlit
N/A
Visualization observer readout
Local Sidereal Time
06:43:17
Azimuth
Unknown
Elevation
Unknown
Doppler factor
Unknown
Orbital elements
Apogee altitude
793.907 km
Perigee altitude
540.796 km
Semi-major axis
7,045.489 km
Eccentricity
0.01796
Inclination
81.9455°
RAAN
159.4126°
Arg. of periapsis
308.9159°
True anomaly
51.20518°
Mean anomaly
49.6144°
Eccentric anomaly
50.40748°
Mean motion
3.67009 °/min
Orbital period
98.09 mins
BSTAR
0.00019522
Loading maneuver chart data...
Computing Atmospheric mass density...

Documentation

Showing up to 5 results
|